Weather in Urdzhar

Kazakhstan     47˚05′14″N   81˚37′51″E
temp.,
°C
wind,
m/s
gust,
m/s
humid.,
%
clouds,
%
prec.,
mm/h
press.,
hPa
HPBL,
m
29 november, sun
sun2900:00−3˚wsw379199 5.9 1038243
03:00−4˚sse129297 0.2 103924
06:00−5˚se229599 0.5 104125
09:00−4˚se3597100 0.6 1041197
12:00−3˚sse3391100 1.4 1040377
15:00−4˚s2494100 0.4 1040187
18:00−6˚se2396100 1.1 104140
21:00−6˚ese3491100 0.3 104284
30 november, mon
mon3000:00−5˚se4696100 1.5 1042236
03:00−5˚ese3496100 1.4 1041130
06:00−6˚ese3696100 2.4 1042188
09:00−6˚e2394100 0.4 104385
12:00−5˚n1190100 0.6 104367
15:00−7˚nnw118462 0.0 104321
18:00−9˚ne227770 0.0 104421
21:00−10˚ne23660 0.0 104522
1 december, tue
tue100:00−10˚ne23630 0.0 104423
03:00−10˚ne23610 0.0 104325
06:00−9˚ne45590 0.0 104342
09:00−8˚ne45610 0.0 104349
12:00−5˚ne34700 0.0 104174
15:00−5˚ne45680 0.0 104194
18:00−8˚ne45630 0.0 104255
21:00−8˚ne45600 0.0 104249
2 december, wed
wed200:00−8˚ne45580 0.0 104342
03:00−9˚ene23580 0.0 104224
06:00−10˚nne22530 0.0 104222
09:00−10˚nne22510 0.0 104222
12:00−6˚nne11620 0.0 104021
15:00−6˚nne11580 0.0 103921
18:00−9˚ne22540 0.0 103921
21:00−9˚ne22480 0.0 103921
3 december, thu
thu300:00−9˚ene23490 0.0 103724
03:00−9˚ne23520 0.0 103621
06:00−11˚ne11530 0.0 103621
09:00−10˚ene11530 0.0 103621
12:00−6˚e13620 0.0 103456
15:00−6˚ene12620 0.0 103322
18:00−9˚ene12530 0.0 103421
21:00−10˚ene12530 0.0 103421